Time,TemperatureF,DewpointF,PressureIn,WindDirection,WindDirectionDegrees,WindSpeedMPH,WindSpeedGustMPH,Humidity,HourlyPrecipIn,Conditions,Clouds,dailyrainin,SoftwareType,DateUTC
2013-01-02 00:00:00,20.6,7.4,29.95,North,9,0.0,8.4,56,0.00,,CLR,0.05,VWS V14.01,2013-01-02 05:00:00,
2013-01-02 00:02:00,20.5,7.3,29.95,North,10,8.4,8.4,56,0.00,,CLR,0.00,VWS V14.01,2013-01-02 05:02:00,
2013-01-02 00:07:00,20.5,7.3,29.95,NNW,346,1.4,8.4,56,0.00,,CLR,0.00,VWS V14.01,2013-01-02 05:07:00,
2013-01-02 00:12:00,20.2,7.0,29.95,ENE,67,0.0,0.0,56,0.00,,CLR,0.00,VWS V14.01,2013-01-02 05:12:00,
2013-01-02 00:17:00,20.1,7.7,29.95,West,280,4.2,5.6,58,0.00,,CLR,0.00,VWS V14.01,2013-01-02 05:17:00,
2013-01-02 00:22:00,20.1,7.7,29.96,WSW,257,0.0,1.4,58,0.00,,CLR,0.00,VWS V14.01,2013-01-02 05:22:00,
2013-01-02 00:27:00,19.9,7.9,29.96,NNE,31,5.6,11.2,59,0.00,,CLR,0.00,VWS V14.01,2013-01-02 05:27:00,
2013-01-02 00:32:00,20.1,7.7,29.95,North,0,0.0,1.4,58,0.00,,CLR,0.00,VWS V14.01,2013-01-02 05:32:00,
2013-01-02 00:37:00,20.1,8.1,29.95,NNW,345,1.4,5.6,59,0.00,,CLR,0.00,VWS V14.01,2013-01-02 05:37:00,
2013-01-02 00:42:00,19.9,8.6,29.95,NW,314,0.0,0.0,61,0.00,,CLR,0.00,VWS V14.01,2013-01-02 05:42:00,
2013-01-02 00:47:00,19.7,8.4,29.95,North,3,0.0,1.4,61,0.00,,CLR,0.00,VWS V14.01,2013-01-02 05:47:00,
2013-01-02 00:52:00,19.8,8.5,29.95,NNE,31,2.8,9.8,61,0.00,,CLR,0.00,VWS V14.01,2013-01-02 05:52:00,
2013-01-02 00:57:00,19.8,8.9,29.95,North,3,0.0,12.6,62,0.00,,CLR,0.00,VWS V14.01,2013-01-02 05:57:00,
2013-01-02 01:02:00,19.8,8.9,29.94,NNW,334,4.2,12.6,62,0.00,,CLR,0.00,VWS V14.01,2013-01-02 06:02:00,
2013-01-02 01:07:00,19.8,8.9,29.95,North,359,2.8,7.0,62,0.00,,CLR,0.00,VWS V14.01,2013-01-02 06:07:00,
2013-01-02 01:12:00,19.8,8.9,29.95,WNW,288,0.0,9.8,62,0.00,,CLR,0.00,VWS V14.01,2013-01-02 06:12:00,
2013-01-02 01:17:00,19.8,8.9,29.95,North,11,8.4,8.4,62,0.00,,CLR,0.00,VWS V14.01,2013-01-02 06:17:00,
2013-01-02 01:22:00,19.8,8.9,29.95,NW,326,0.0,1.4,62,0.00,,CLR,0.00,VWS V14.01,2013-01-02 06:22:00,
2013-01-02 01:27:00,19.8,9.3,29.96,NNW,333,1.4,2.8,63,0.00,,CLR,0.00,VWS V14.01,2013-01-02 06:27:00,
2013-01-02 01:32:00,19.7,9.5,29.96,WNW,285,0.0,7.0,64,0.00,,CLR,0.00,VWS V14.01,2013-01-02 06:32:00,
2013-01-02 01:37:00,19.8,8.9,29.96,WSW,258,0.0,0.0,62,0.00,,CLR,0.00,VWS V14.01,2013-01-02 06:37:00,
2013-01-02 01:42:00,19.8,9.3,29.96,NW,324,0.0,4.2,63,0.00,,CLR,0.00,VWS V14.01,2013-01-02 06:42:00,
2013-01-02 01:47:00,19.6,9.4,29.96,NW,306,0.0,0.0,64,0.00,,CLR,0.00,VWS V14.01,2013-01-02 06:47:00,
2013-01-02 01:52:00,19.5,9.7,29.97,NW,322,0.0,1.4,65,0.00,,CLR,0.00,VWS V14.01,2013-01-02 06:52:00,
2013-01-02 01:57:00,19.3,9.5,29.97,NNW,337,0.0,1.4,65,0.00,,CLR,0.00,VWS V14.01,2013-01-02 06:57:00,
2013-01-02 02:02:00,19.1,9.3,29.97,WNW,296,0.0,4.2,65,0.00,,CLR,0.00,VWS V14.01,2013-01-02 07:02:00,
2013-01-02 02:07:00,19.1,8.9,29.97,North,357,0.0,2.8,64,0.00,,CLR,0.00,VWS V14.01,2013-01-02 07:07:00,
2013-01-02 02:12:00,19.0,9.2,29.98,NW,313,0.0,2.8,65,0.00,,CLR,0.00,VWS V14.01,2013-01-02 07:12:00,
2013-01-02 02:17:00,18.8,9.0,29.97,NW,314,0.0,0.0,65,0.00,,CLR,0.00,VWS V14.01,2013-01-02 07:17:00,
2013-01-02 02:22:00,18.5,8.7,29.97,NW,314,0.0,0.0,65,0.00,,CLR,0.00,VWS V14.01,2013-01-02 07:22:00,
2013-01-02 02:27:00,18.4,9.3,29.97,NNW,332,0.0,0.0,67,0.00,,CLR,0.00,VWS V14.01,2013-01-02 07:27:00,
2013-01-02 02:32:00,18.2,8.8,29.97,North,350,0.0,1.4,66,0.00,,CLR,0.00,VWS V14.01,2013-01-02 07:32:00,
2013-01-02 02:37:00,18.1,9.0,29.97,North,351,0.0,2.8,67,0.00,,CLR,0.00,VWS V14.01,2013-01-02 07:37:00,
2013-01-02 02:42:00,17.9,8.8,29.97,WNW,283,0.0,0.0,67,0.00,,CLR,0.00,VWS V14.01,2013-01-02 07:42:00,
2013-01-02 02:47:00,17.7,8.6,29.97,WNW,283,0.0,0.0,67,0.00,,CLR,0.00,VWS V14.01,2013-01-02 07:47:00,
2013-01-02 02:52:00,17.6,8.9,29.96,North,5,0.0,0.0,68,0.00,,CLR,0.00,VWS V14.01,2013-01-02 07:52:00,
2013-01-02 02:57:00,17.6,9.2,29.96,NW,319,0.0,4.2,69,0.00,,CLR,0.00,VWS V14.01,2013-01-02 07:57:00,
2013-01-02 03:02:00,17.6,8.9,29.96,North,3,0.0,1.4,68,0.00,,CLR,0.00,VWS V14.01,2013-01-02 08:02:00,
2013-01-02 03:07:00,17.6,9.2,29.97,NW,325,0.0,0.0,69,0.00,,CLR,0.00,VWS V14.01,2013-01-02 08:07:00,
2013-01-02 03:12:00,17.6,8.9,29.96,North,4,0.0,0.0,68,0.00,,CLR,0.00,VWS V14.01,2013-01-02 08:12:00,
2013-01-02 03:17:00,17.7,9.3,29.96,NNW,337,0.0,0.0,69,0.00,,CLR,0.00,VWS V14.01,2013-01-02 08:17:00,
2013-01-02 03:22:00,17.7,9.3,29.97,NW,324,0.0,0.0,69,0.00,,CLR,0.00,VWS V14.01,2013-01-02 08:22:00,
2013-01-02 03:27:00,17.7,9.6,29.97,NW,322,1.4,4.2,70,0.00,,CLR,0.00,VWS V14.01,2013-01-02 08:27:00,
2013-01-02 03:32:00,17.7,9.6,29.97,North,358,0.0,1.4,70,0.00,,CLR,0.00,VWS V14.01,2013-01-02 08:32:00,
2013-01-02 03:37:00,17.8,9.7,29.97,West,281,1.4,1.4,70,0.00,,CLR,0.00,VWS V14.01,2013-01-02 08:37:00,
2013-01-02 03:42:00,17.6,9.5,29.96,North,0,0.0,8.4,70,0.00,,CLR,0.00,VWS V14.01,2013-01-02 08:42:00,
2013-01-02 03:47:00,17.8,9.7,29.96,NNW,328,11.2,11.2,70,0.00,,CLR,0.00,VWS V14.01,2013-01-02 08:47:00,
2013-01-02 03:52:00,17.7,9.6,29.95,NNW,338,0.0,11.2,70,0.00,,CLR,0.00,VWS V14.01,2013-01-02 08:52:00,
2013-01-02 03:57:00,17.7,9.6,29.95,NW,317,4.2,5.6,70,0.00,,CLR,0.00,VWS V14.01,2013-01-02 08:57:00,
2013-01-02 04:02:00,17.7,9.6,29.96,North,0,0.0,1.4,70,0.00,,CLR,0.00,VWS V14.01,2013-01-02 09:02:00,
2013-01-02 04:07:00,17.6,9.5,29.96,WSW,237,1.4,4.2,70,0.00,,CLR,0.00,VWS V14.01,2013-01-02 09:07:00,
2013-01-02 04:12:00,17.6,9.8,29.96,NW,323,0.0,12.6,71,0.00,,CLR,0.00,VWS V14.01,2013-01-02 09:12:00,
2013-01-02 04:17:00,17.6,9.5,29.96,North,349,0.0,5.6,70,0.00,,CLR,0.00,VWS V14.01,2013-01-02 09:17:00,
2013-01-02 04:22:00,17.6,9.5,29.95,NNE,29,8.4,19.6,70,0.00,,CLR,0.00,VWS V14.01,2013-01-02 09:22:00,
2013-01-02 04:27:00,17.6,9.5,29.95,NE,39,1.4,5.6,70,0.00,,CLR,0.00,VWS V14.01,2013-01-02 09:27:00,
2013-01-02 04:32:00,17.6,9.5,29.95,NNE,17,0.0,12.6,70,0.00,,CLR,0.00,VWS V14.01,2013-01-02 09:32:00,
2013-01-02 04:37:00,17.6,9.5,29.96,North,358,0.0,8.4,70,0.00,,CLR,0.00,VWS V14.01,2013-01-02 09:37:00,
2013-01-02 04:42:00,17.6,9.5,29.95,NW,305,0.0,7.0,70,0.00,,CLR,0.00,VWS V14.01,2013-01-02 09:42:00,
2013-01-02 04:47:00,17.4,9.6,29.95,North,359,0.0,9.8,71,0.00,,CLR,0.00,VWS V14.01,2013-01-02 09:47:00,
2013-01-02 04:52:00,17.4,9.3,29.96,NNW,340,0.0,0.0,70,0.00,,CLR,0.00,VWS V14.01,2013-01-02 09:52:00,
2013-01-02 04:57:00,17.4,9.3,29.97,NNW,339,4.2,4.2,70,0.00,,CLR,0.00,VWS V14.01,2013-01-02 09:57:00,
2013-01-02 05:02:00,17.5,9.1,29.97,NE,39,0.0,0.0,69,0.00,,CLR,0.00,VWS V14.01,2013-01-02 10:02:00,
2013-01-02 05:07:00,17.4,9.3,29.97,NW,305,0.0,7.0,70,0.00,,CLR,0.00,VWS V14.01,2013-01-02 10:07:00,
2013-01-02 05:12:00,17.3,9.2,29.97,NW,304,0.0,1.4,70,0.00,,CLR,0.00,VWS V14.01,2013-01-02 10:12:00,
2013-01-02 05:17:00,17.1,9.0,29.97,WSW,240,2.8,4.2,70,0.00,,CLR,0.00,VWS V14.01,2013-01-02 10:17:00,
2013-01-02 05:22:00,17.1,9.0,29.97,WSW,240,0.0,1.4,70,0.00,,CLR,0.00,VWS V14.01,2013-01-02 10:22:00,
2013-01-02 05:27:00,17.1,9.0,29.97,NNW,332,0.0,0.0,70,0.00,,CLR,0.00,VWS V14.01,2013-01-02 10:27:00,
2013-01-02 05:32:00,17.1,9.0,29.96,WNW,284,0.0,1.4,70,0.00,,CLR,0.00,VWS V14.01,2013-01-02 10:32:00,
2013-01-02 05:37:00,16.9,8.5,29.97,West,280,0.0,1.4,69,0.00,,CLR,0.00,VWS V14.01,2013-01-02 10:37:00,
2013-01-02 05:42:00,17.0,8.3,29.97,NW,323,1.4,1.4,68,0.00,,CLR,0.00,VWS V14.01,2013-01-02 10:42:00,
2013-01-02 05:47:00,16.8,8.4,29.97,NW,322,0.0,0.0,69,0.00,,CLR,0.00,VWS V14.01,2013-01-02 10:47:00,
2013-01-02 05:52:00,16.8,8.1,29.98,NNE,31,0.0,1.4,68,0.00,,CLR,0.00,VWS V14.01,2013-01-02 10:52:00,
2013-01-02 05:57:00,16.6,7.9,29.97,ENE,77,0.0,0.0,68,0.00,,CLR,0.00,VWS V14.01,2013-01-02 10:57:00,
2013-01-02 06:02:00,16.6,7.9,29.97,NW,323,0.0,0.0,68,0.00,,SCT250,0.00,VWS V14.01,2013-01-02 11:02:00,
2013-01-02 06:07:00,16.6,7.9,29.97,NW,323,0.0,0.0,68,0.00,,SCT250,0.00,VWS V14.01,2013-01-02 11:07:00,
2013-01-02 06:12:00,16.5,8.1,29.97,NW,323,0.0,0.0,69,0.00,,SCT250,0.00,VWS V14.01,2013-01-02 11:12:00,
2013-01-02 06:17:00,16.2,7.8,29.97,NW,323,0.0,0.0,69,0.00,,SCT250,0.00,VWS V14.01,2013-01-02 11:17:00,
2013-01-02 06:22:00,15.8,7.8,29.97,NW,323,0.0,0.0,70,0.00,,SCT250,0.00,VWS V14.01,2013-01-02 11:22:00,
2013-01-02 06:27:00,15.7,7.3,29.98,NW,323,0.0,0.0,69,0.00,,SCT250,0.00,VWS V14.01,2013-01-02 11:27:00,
2013-01-02 06:32:00,15.5,7.5,29.97,NW,323,0.0,0.0,70,0.00,,SCT250,0.00,VWS V14.01,2013-01-02 11:32:00,
2013-01-02 06:37:00,15.2,7.2,29.97,NW,311,0.0,4.2,70,0.00,,SCT250,0.00,VWS V14.01,2013-01-02 11:37:00,
2013-01-02 06:42:00,15.0,7.3,29.97,NW,310,0.0,0.0,71,0.00,,SCT250,0.00,VWS V14.01,2013-01-02 11:42:00,
2013-01-02 06:47:00,14.7,7.3,29.97,NW,311,0.0,0.0,72,0.00,,SCT250,0.00,VWS V14.01,2013-01-02 11:47:00,
2013-01-02 06:52:00,14.6,7.5,29.97,NW,311,0.0,0.0,73,0.00,,SCT250,0.00,VWS V14.01,2013-01-02 11:52:00,
2013-01-02 06:57:00,14.4,7.6,29.97,NW,315,0.0,0.0,74,0.00,,SCT250,0.00,VWS V14.01,2013-01-02 11:57:00,
2013-01-02 07:02:00,14.3,7.6,29.97,NW,315,0.0,0.0,74,0.00,,SCT250,0.00,VWS V14.01,2013-01-02 12:02:00,
2013-01-02 07:07:00,14.3,7.8,29.97,NW,315,0.0,0.0,75,0.00,,SCT250,0.00,VWS V14.01,2013-01-02 12:07:00,
2013-01-02 07:12:00,14.2,7.7,29.97,NW,315,0.0,0.0,75,0.00,,SCT250,0.00,VWS V14.01,2013-01-02 12:12:00,
2013-01-02 07:17:00,14.1,7.7,29.97,NW,315,0.0,0.0,75,0.00,,SCT250,0.00,VWS V14.01,2013-01-02 12:17:00,
2013-01-02 07:22:00,14.2,8.0,29.98,NW,315,0.0,0.0,76,0.00,,SCT250,0.00,VWS V14.01,2013-01-02 12:22:00,
2013-01-02 07:27:00,14.3,7.8,29.96,NW,315,0.0,0.0,75,0.00,,SCT250,0.00,VWS V14.01,2013-01-02 12:27:00,
2013-01-02 07:32:00,14.2,8.0,29.97,NW,315,0.0,0.0,76,0.00,,SCT250,0.00,VWS V14.01,2013-01-02 12:32:00,
2013-01-02 07:37:00,14.3,7.8,29.97,NW,315,0.0,0.0,75,0.00,,SCT250,0.00,VWS V14.01,2013-01-02 12:37:00,
2013-01-02 07:42:00,14.4,8.2,29.96,North,353,0.0,5.6,76,0.00,,SCT250,0.00,VWS V14.01,2013-01-02 12:42:00,
2013-01-02 07:47:00,14.6,8.4,29.97,NW,324,2.8,2.8,76,0.00,,SCT250,0.00,VWS V14.01,2013-01-02 12:47:00,
2013-01-02 07:52:00,14.6,8.4,29.97,NW,324,0.0,1.4,76,0.00,,SCT250,0.00,VWS V14.01,2013-01-02 12:52:00,
2013-01-02 07:57:00,14.6,8.4,29.97,WNW,301,0.0,0.0,76,0.00,,SCT250,0.00,VWS V14.01,2013-01-02 12:57:00,
2013-01-02 08:02:00,14.5,8.3,29.97,WNW,302,0.0,0.0,76,0.00,,BKN250,0.00,VWS V14.01,2013-01-02 13:02:00,
2013-01-02 08:07:00,14.5,8.0,29.97,WNW,302,0.0,0.0,75,0.00,,BKN250,0.00,VWS V14.01,2013-01-02 13:07:00,
2013-01-02 08:12:00,14.7,8.2,29.97,WNW,301,0.0,0.0,75,0.00,,BKN250,0.00,VWS V14.01,2013-01-02 13:12:00,
2013-01-02 08:17:00,14.7,8.5,29.97,WNW,301,0.0,0.0,76,0.00,,BKN250,0.00,VWS V14.01,2013-01-02 13:17:00,
2013-01-02 08:22:00,14.7,8.2,29.97,WNW,301,0.0,0.0,75,0.00,,BKN250,0.00,VWS V14.01,2013-01-02 13:22:00,
2013-01-02 08:27:00,14.7,8.2,29.97,WNW,288,0.0,0.0,75,0.00,,BKN250,0.00,VWS V14.01,2013-01-02 13:27:00,
2013-01-02 08:32:00,14.7,8.5,29.98,WNW,288,0.0,0.0,76,0.00,,BKN250,0.00,VWS V14.01,2013-01-02 13:32:00,
2013-01-02 08:37:00,14.7,8.5,29.98,WNW,288,0.0,0.0,76,0.00,,BKN250,0.00,VWS V14.01,2013-01-02 13:37:00,
2013-01-02 08:42:00,14.9,8.7,29.98,West,270,0.0,0.0,76,0.00,,BKN250,0.00,VWS V14.01,2013-01-02 13:42:00,
2013-01-02 08:47:00,15.1,8.6,29.98,WSW,254,0.0,0.0,75,0.00,,BKN250,0.00,VWS V14.01,2013-01-02 13:47:00,
2013-01-02 08:52:00,15.4,8.9,29.98,SW,218,0.0,1.4,75,0.00,,BKN250,0.00,VWS V14.01,2013-01-02 13:52:00,
2013-01-02 08:57:00,15.5,8.7,29.98,SW,218,0.0,1.4,74,0.00,,BKN250,0.00,VWS V14.01,2013-01-02 13:57:00,
2013-01-02 09:02:00,15.7,8.9,29.98,SW,218,0.0,0.0,74,0.00,,SCT250,0.00,VWS V14.01,2013-01-02 14:02:00,
2013-01-02 09:07:00,15.8,9.0,29.99,SW,218,0.0,1.4,74,0.00,,SCT250,0.00,VWS V14.01,2013-01-02 14:07:00,
2013-01-02 09:12:00,16.0,9.2,29.99,SSW,198,0.0,7.0,74,0.00,,SCT250,0.00,VWS V14.01,2013-01-02 14:12:00,
2013-01-02 09:17:00,16.3,9.2,29.99,SW,222,0.0,4.2,73,0.00,,SCT250,0.00,VWS V14.01,2013-01-02 14:17:00,
2013-01-02 09:22:00,16.6,9.2,30.00,SW,222,0.0,2.8,72,0.00,,SCT250,0.00,VWS V14.01,2013-01-02 14:22:00,
2013-01-02 09:26:00,16.9,9.1,30.00,SW,217,0.0,4.2,71,0.00,,SCT250,0.00,VWS V14.01,2013-01-02 14:26:00,
2013-01-02 09:31:00,17.3,9.5,30.00,SW,224,0.0,2.8,71,0.00,,SCT250,0.00,VWS V14.01,2013-01-02 14:31:00,
2013-01-02 09:36:00,17.4,9.6,30.00,SW,222,7.0,7.0,71,0.00,,SCT250,0.00,VWS V14.01,2013-01-02 14:36:00,
2013-01-02 09:41:00,17.4,9.6,30.00,SW,225,2.8,5.6,71,0.00,,SCT250,0.00,VWS V14.01,2013-01-02 14:41:00,
2013-01-02 09:46:00,17.4,9.6,30.01,SW,233,4.2,5.6,71,0.00,,SCT250,0.00,VWS V14.01,2013-01-02 14:46:00,
2013-01-02 09:51:00,17.6,9.5,30.01,WSW,253,7.0,7.0,70,0.00,,SCT250,0.00,VWS V14.01,2013-01-02 14:51:00,
2013-01-02 09:56:00,17.9,9.8,30.01,WSW,247,0.0,0.0,70,0.00,,SCT250,0.00,VWS V14.01,2013-01-02 14:56:00,
2013-01-02 10:01:00,18.4,10.3,30.00,SSW,208,0.0,4.2,70,0.00,,CLR,0.00,VWS V14.01,2013-01-02 15:01:00,
2013-01-02 10:06:00,18.8,10.3,30.01,South,186,0.0,5.6,69,0.00,,CLR,0.00,VWS V14.01,2013-01-02 15:06:00,
2013-01-02 10:11:00,19.0,10.2,30.01,SW,218,1.4,5.6,68,0.00,,CLR,0.00,VWS V14.01,2013-01-02 15:11:00,
2013-01-02 10:16:00,19.1,10.3,30.00,West,269,1.4,4.2,68,0.00,,CLR,0.00,VWS V14.01,2013-01-02 15:16:00,
2013-01-02 10:21:00,19.3,10.1,30.00,West,261,12.6,12.6,67,0.00,,CLR,0.00,VWS V14.01,2013-01-02 15:21:00,
2013-01-02 10:26:00,19.3,10.1,30.00,SSW,206,0.0,4.2,67,0.00,,CLR,0.00,VWS V14.01,2013-01-02 15:26:00,
2013-01-02 10:31:00,19.4,10.2,30.00,SW,229,2.8,2.8,67,0.00,,CLR,0.00,VWS V14.01,2013-01-02 15:31:00,
2013-01-02 10:36:00,19.6,10.4,30.00,West,271,1.4,8.4,67,0.00,,CLR,0.00,VWS V14.01,2013-01-02 15:36:00,
2013-01-02 10:41:00,19.6,10.4,29.99,SW,219,0.0,7.0,67,0.00,,CLR,0.00,VWS V14.01,2013-01-02 15:41:00,
2013-01-02 10:46:00,19.6,10.4,29.99,SW,229,2.8,5.6,67,0.00,,CLR,0.00,VWS V14.01,2013-01-02 15:46:00,
2013-01-02 10:51:00,19.6,10.4,29.99,West,261,0.0,2.8,67,0.00,,CLR,0.00,VWS V14.01,2013-01-02 15:51:00,
2013-01-02 10:56:00,19.6,10.4,29.99,WSW,247,4.2,4.2,67,0.00,,CLR,0.00,VWS V14.01,2013-01-02 15:56:00,
2013-01-02 11:01:00,19.7,10.9,29.98,SW,217,5.6,5.6,68,0.00,,SCT250,0.00,VWS V14.01,2013-01-02 16:01:00,
2013-01-02 11:06:00,19.8,11.0,29.99,SW,217,2.8,4.2,68,0.00,,SCT250,0.00,VWS V14.01,2013-01-02 16:06:00,
2013-01-02 11:11:00,19.8,10.6,29.99,SW,226,1.4,5.6,67,0.00,,SCT250,0.00,VWS V14.01,2013-01-02 16:11:00,
2013-01-02 11:16:00,20.1,11.2,29.98,WSW,237,2.8,2.8,68,0.00,,SCT250,0.00,VWS V14.01,2013-01-02 16:16:00,
2013-01-02 11:21:00,20.2,11.0,29.98,West,278,1.4,8.4,67,0.00,,SCT250,0.00,VWS V14.01,2013-01-02 16:21:00,
2013-01-02 11:26:00,20.6,11.4,29.99,WSW,253,0.0,1.4,67,0.00,,SCT250,0.00,VWS V14.01,2013-01-02 16:26:00,
2013-01-02 11:31:00,20.8,11.2,29.98,West,281,0.0,4.2,66,0.00,,SCT250,0.00,VWS V14.01,2013-01-02 16:31:00,
2013-01-02 11:36:00,20.8,11.2,29.98,West,261,1.4,9.8,66,0.00,,SCT250,0.00,VWS V14.01,2013-01-02 16:36:00,
2013-01-02 11:41:00,20.8,11.2,29.98,WSW,254,0.0,1.4,66,0.00,,SCT250,0.00,VWS V14.01,2013-01-02 16:41:00,
2013-01-02 11:46:00,21.1,11.5,29.97,West,262,1.4,1.4,66,0.00,,SCT250,0.00,VWS V14.01,2013-01-02 16:46:00,
2013-01-02 11:51:00,21.2,11.6,29.97,SSW,203,0.0,1.4,66,0.00,,SCT250,0.00,VWS V14.01,2013-01-02 16:51:00,
2013-01-02 11:56:00,21.5,11.6,29.97,SW,223,0.0,1.4,65,0.00,,SCT250,0.00,VWS V14.01,2013-01-02 16:56:00,
2013-01-02 12:01:00,21.6,11.7,29.96,South,189,0.0,4.2,65,0.00,,SCT250,0.00,VWS V14.01,2013-01-02 17:01:00,
2013-01-02 12:06:00,21.7,11.4,29.97,South,189,0.0,0.0,64,0.00,,BKN250,0.00,VWS V14.01,2013-01-02 17:06:00,
2013-01-02 12:11:00,22.0,11.7,29.96,WSW,248,1.4,12.6,64,0.00,,BKN250,0.00,VWS V14.01,2013-01-02 17:11:00,
2013-01-02 12:16:00,21.8,11.5,29.96,SW,220,4.2,7.0,64,0.00,,BKN250,0.00,VWS V14.01,2013-01-02 17:16:00,
2013-01-02 12:21:00,21.8,11.5,29.96,WSW,237,0.0,4.2,64,0.00,,BKN250,0.00,VWS V14.01,2013-01-02 17:21:00,
2013-01-02 12:26:00,22.0,11.7,29.96,WSW,243,0.0,2.8,64,0.00,,BKN250,0.00,VWS V14.01,2013-01-02 17:26:00,
2013-01-02 12:31:00,22.3,12.0,29.96,West,269,0.0,4.2,64,0.00,,BKN250,0.00,VWS V14.01,2013-01-02 17:31:00,
2013-01-02 12:36:00,22.6,12.3,29.95,SSW,213,0.0,7.0,64,0.00,,BKN250,0.00,VWS V14.01,2013-01-02 17:36:00,
2013-01-02 12:41:00,22.7,12.4,29.95,West,270,2.8,4.2,64,0.00,,BKN250,0.00,VWS V14.01,2013-01-02 17:41:00,
2013-01-02 12:46:00,23.0,12.6,29.95,SW,231,0.0,5.6,64,0.00,,BKN250,0.00,VWS V14.01,2013-01-02 17:46:00,
2013-01-02 12:51:00,23.2,12.5,29.95,SW,226,0.0,2.8,63,0.00,,BKN250,0.00,VWS V14.01,2013-01-02 17:51:00,
2013-01-02 12:56:00,23.2,12.8,29.95,WSW,248,0.0,8.4,64,0.00,,BKN250,0.00,VWS V14.01,2013-01-02 17:56:00,
2013-01-02 13:01:00,23.3,12.6,29.95,West,267,0.0,7.0,63,0.00,,BKN250,0.00,VWS V14.01,2013-01-02 18:01:00,
2013-01-02 13:06:00,23.5,12.4,29.95,NW,318,0.0,4.2,62,0.00,,BKN250,0.00,VWS V14.01,2013-01-02 18:06:00,
2013-01-02 13:11:00,23.6,12.5,29.95,WSW,248,1.4,7.0,62,0.00,,BKN250,0.00,VWS V14.01,2013-01-02 18:11:00,
2013-01-02 13:16:00,23.7,12.6,29.94,WSW,237,1.4,1.4,62,0.00,,BKN250,0.00,VWS V14.01,2013-01-02 18:16:00,
2013-01-02 13:21:00,23.9,12.8,29.95,West,269,0.0,8.4,62,0.00,,BKN250,0.00,VWS V14.01,2013-01-02 18:21:00,
2013-01-02 13:26:00,24.2,12.7,29.95,West,281,0.0,1.4,61,0.00,,BKN250,0.00,VWS V14.01,2013-01-02 18:26:00,
2013-01-02 13:31:00,24.5,13.0,29.95,SW,236,0.0,0.0,61,0.00,,BKN250,0.00,VWS V14.01,2013-01-02 18:31:00,
2013-01-02 13:36:00,24.7,13.2,29.95,NW,317,0.0,1.4,61,0.00,,BKN250,0.00,VWS V14.01,2013-01-02 18:36:00,
2013-01-02 13:41:00,24.9,13.4,29.95,West,277,0.0,0.0,61,0.00,,BKN250,0.00,VWS V14.01,2013-01-02 18:41:00,
2013-01-02 13:46:00,24.8,12.9,29.95,SW,234,0.0,2.8,60,0.00,,BKN250,0.00,VWS V14.01,2013-01-02 18:46:00,
2013-01-02 13:51:00,24.9,13.0,29.95,SW,225,0.0,1.4,60,0.00,,BKN250,0.00,VWS V14.01,2013-01-02 18:51:00,
2013-01-02 13:56:00,25.1,13.2,29.95,WSW,238,0.0,7.0,60,0.00,,BKN250,0.00,VWS V14.01,2013-01-02 18:56:00,
2013-01-02 14:01:00,25.1,13.2,29.95,SW,217,0.0,5.6,60,0.00,,BKN250,0.00,VWS V14.01,2013-01-02 19:01:00,
2013-01-02 14:06:00,25.1,13.6,29.96,WSW,258,0.0,0.0,61,0.00,,BKN250,0.00,VWS V14.01,2013-01-02 19:06:00,
2013-01-02 14:11:00,25.5,13.9,29.96,SW,229,0.0,4.2,61,0.00,,BKN250,0.00,VWS V14.01,2013-01-02 19:11:00,
2013-01-02 14:16:00,25.7,14.1,29.97,WNW,289,5.6,7.0,61,0.00,,BKN250,0.00,VWS V14.01,2013-01-02 19:16:00,
2013-01-02 14:21:00,25.7,13.4,29.97,SW,231,0.0,1.4,59,0.00,,BKN250,0.00,VWS V14.01,2013-01-02 19:21:00,
2013-01-02 14:26:00,25.7,13.4,29.97,WSW,257,4.2,7.0,59,0.00,,BKN250,0.00,VWS V14.01,2013-01-02 19:26:00,
2013-01-02 14:31:00,25.5,13.2,29.97,WNW,297,7.0,9.8,59,0.00,,BKN250,0.00,VWS V14.01,2013-01-02 19:31:00,
2013-01-02 14:36:00,25.7,13.4,29.97,West,270,2.8,4.2,59,0.00,,BKN250,0.00,VWS V14.01,2013-01-02 19:36:00,
2013-01-02 14:41:00,25.7,13.4,29.98,SW,227,0.0,0.0,59,0.00,,BKN250,0.00,VWS V14.01,2013-01-02 19:41:00,
2013-01-02 14:46:00,25.8,14.2,29.97,SW,225,0.0,2.8,61,0.00,,BKN250,0.00,VWS V14.01,2013-01-02 19:46:00,
2013-01-02 14:51:00,26.0,14.4,29.97,West,264,4.2,4.2,61,0.00,,BKN250,0.00,VWS V14.01,2013-01-02 19:51:00,
2013-01-02 14:56:00,26.1,14.5,29.98,WNW,300,0.0,0.0,61,0.00,,BKN250,0.00,VWS V14.01,2013-01-02 19:56:00,
2013-01-02 15:01:00,26.1,14.5,29.97,North,356,0.0,8.4,61,0.00,,BKN250,0.00,VWS V14.01,2013-01-02 20:01:00,
2013-01-02 15:06:00,26.2,13.8,29.98,West,260,1.4,4.2,59,0.00,,BKN250,0.00,VWS V14.01,2013-01-02 20:06:00,
2013-01-02 15:11:00,26.3,14.3,29.98,SW,232,2.8,2.8,60,0.00,,BKN250,0.00,VWS V14.01,2013-01-02 20:11:00,
2013-01-02 15:16:00,26.4,14.4,29.98,SW,234,1.4,5.6,60,0.00,,BKN250,0.00,VWS V14.01,2013-01-02 20:16:00,
2013-01-02 15:21:00,26.4,14.4,29.99,WSW,250,4.2,4.2,60,0.00,,BKN250,0.00,VWS V14.01,2013-01-02 20:21:00,
2013-01-02 15:26:00,26.4,14.4,29.99,WNW,287,0.0,0.0,60,0.00,,BKN250,0.00,VWS V14.01,2013-01-02 20:26:00,
2013-01-02 15:31:00,26.4,14.8,29.99,West,261,0.0,1.4,61,0.00,,BKN250,0.00,VWS V14.01,2013-01-02 20:31:00,
2013-01-02 15:36:00,26.6,15.0,29.99,SSW,198,0.0,8.4,61,0.00,,BKN250,0.00,VWS V14.01,2013-01-02 20:36:00,
2013-01-02 15:41:00,26.6,15.0,29.99,WNW,289,0.0,0.0,61,0.00,,BKN250,0.00,VWS V14.01,2013-01-02 20:41:00,
2013-01-02 15:46:00,26.4,14.8,29.99,WSW,251,0.0,0.0,61,0.00,,BKN250,0.00,VWS V14.01,2013-01-02 20:46:00,
2013-01-02 15:51:00,26.4,15.2,29.99,WSW,253,0.0,1.4,62,0.00,,BKN250,0.00,VWS V14.01,2013-01-02 20:51:00,
2013-01-02 15:56:00,26.4,15.2,30.00,WNW,300,5.6,5.6,62,0.00,,BKN250,0.00,VWS V14.01,2013-01-02 20:56:00,
2013-01-02 16:01:00,26.3,14.7,29.99,SW,228,0.0,0.0,61,0.00,,BKN250,0.00,VWS V14.01,2013-01-02 21:01:00,
2013-01-02 16:06:00,26.3,14.7,30.00,SSW,209,1.4,2.8,61,0.00,,BKN055,0.00,VWS V14.01,2013-01-02 21:06:00,
2013-01-02 16:11:00,26.3,14.7,30.00,NW,319,0.0,2.8,61,0.00,,BKN055,0.00,VWS V14.01,2013-01-02 21:11:00,
2013-01-02 16:16:00,26.1,14.5,30.00,WSW,247,0.0,1.4,61,0.00,,BKN055,0.00,VWS V14.01,2013-01-02 21:16:00,
2013-01-02 16:21:00,26.1,14.9,30.00,NW,315,0.0,0.0,62,0.00,,BKN055,0.00,VWS V14.01,2013-01-02 21:21:00,
2013-01-02 16:26:00,26.0,14.8,30.00,WNW,298,0.0,4.2,62,0.00,,BKN055,0.00,VWS V14.01,2013-01-02 21:26:00,
2013-01-02 16:31:00,26.1,14.9,30.01,NE,43,0.0,1.4,62,0.00,,BKN055,0.00,VWS V14.01,2013-01-02 21:31:00,
2013-01-02 16:36:00,26.1,14.9,30.01,WSW,248,0.0,1.4,62,0.00,,BKN055,0.00,VWS V14.01,2013-01-02 21:36:00,
2013-01-02 16:41:00,26.1,14.9,30.01,WNW,292,1.4,4.2,62,0.00,,BKN055,0.00,VWS V14.01,2013-01-02 21:41:00,
2013-01-02 16:46:00,26.0,14.8,30.01,NNW,327,0.0,1.4,62,0.00,,BKN055,0.00,VWS V14.01,2013-01-02 21:46:00,
2013-01-02 16:51:00,25.8,14.6,30.01,WNW,301,0.0,1.4,62,0.00,,BKN055,0.00,VWS V14.01,2013-01-02 21:51:00,
2013-01-02 16:56:00,25.7,14.9,30.01,West,264,0.0,1.4,63,0.00,,BKN055,0.00,VWS V14.01,2013-01-02 21:56:00,
2013-01-02 17:01:00,25.7,14.9,30.02,West,265,0.0,0.0,63,0.00,,BKN055,0.00,VWS V14.01,2013-01-02 22:01:00,
2013-01-02 17:06:00,25.7,14.9,30.02,WSW,257,0.0,1.4,63,0.00,,BKN055,0.00,VWS V14.01,2013-01-02 22:06:00,